Change the Weather History Date:

Tuesday, October 22, 2013

  Actual Average Record
Temperature  
Mean Temperature 58 °F -  
Max Temperature 64 °F 70 °F 104 °F (1996)
Min Temperature 51 °F 49 °F 28 °F (1974)
Degree Days  
Heating Degree Days 8    
Growing Degree Days 8 (Base 50)    
Moisture  
Dew Point 54 °F    
Average Humidity 90    
Maximum Humidity 97    
Minimum Humidity 73    
Precipitation  
Precipitation 0.01 in - - ()
Sea Level Pressure  
Sea Level Pressure 29.95 in    
Wind  
Wind Speed 1 mph (SW)    
Max Wind Speed 6 mph    
Max Gust Speed -    
Visibility 9 miles    
Events Rain    
Averages and records for this station are not official NWS values.
T = Trace of Precipitation, MM = Missing Value Source: NWS Daily Summary

Daily Weather History Graph

Daily Weather History Graph

Search for Another Location

Airport or City:

Trip Planner

Search our weather history database for the weather conditions in past years. The results will help you decide how hot, cold, wet, or windy it might be!

Date:

Astronomy

Oct. 22, 2013 Rise Set
Actual Time 7:22 AM EDT 6:26 PM EDT
Civil Twilight 6:57 AM EDT 6:52 PM EDT
Nautical Twilight 6:27 AM EDT 7:21 PM EDT
Astronomical Twilight 5:57 AM EDT 7:51 PM EDT
Moon 9:10 PM EDT (10/22) 10:43 AM EDT (10/22)
Length of Visible Light 11h 55m
Length of Day
11h 03m
Waning Gibbous, 87% of the Moon is Illuminated
Oct 22
Waning Gibbous
Oct 26
Last Quarter
Nov 3
New
Nov 10
First Quarter
Nov 17
Full

Hourly Weather History & Observations

Time (EDT) Temp. Dew Point Humidity Pressure Visibility Wind Dir Wind Speed Gust Speed Precip Events Conditions
12:15 AM 53.8 °F 51.4 °F 92% 30.03 in 10.0 mi Calm Calm - N/A   Clear
12:35 AM 53.4 °F 51.4 °F 93% 30.01 in 10.0 mi Calm Calm - N/A   Clear
12:55 AM 53.2 °F 51.4 °F 94% 30.01 in 10.0 mi Calm Calm - N/A   Clear
1:15 AM 52.7 °F 50.9 °F 94% 30.02 in 10.0 mi Calm Calm - N/A   Clear
1:35 AM 52.3 °F 51.1 °F 95% 30.02 in 10.0 mi Calm Calm - N/A   Clear
1:55 AM 52.7 °F 51.3 °F 95% 30.03 in 10.0 mi Calm Calm - N/A   Clear
2:15 AM 52.7 °F 51.3 °F 95% 30.01 in 10.0 mi Calm Calm - N/A   Clear
2:35 AM 52.7 °F 50.9 °F 94% 30.01 in 10.0 mi Calm Calm - N/A   Clear
2:55 AM 52.3 °F 51.1 °F 95% 30.00 in 10.0 mi Calm Calm - N/A   Clear
3:15 AM 52.2 °F 50.9 °F 95% 30.00 in 10.0 mi Calm Calm - N/A   Clear
3:35 AM 52.5 °F 51.1 °F 95% 29.98 in 10.0 mi Calm Calm - N/A   Clear
3:55 AM 51.6 °F 50.5 °F 96% 29.99 in 10.0 mi Calm Calm - N/A   Clear
4:15 AM 52.9 °F 50.9 °F 93% 29.99 in 10.0 mi Calm Calm - N/A   Clear
4:35 AM 53.4 °F 51.3 °F 92% 29.99 in 10.0 mi SW 3.5 mph - N/A   Clear
4:55 AM 52.9 °F 51.4 °F 95% 29.99 in 10.0 mi WSW 3.5 mph - N/A   Clear
5:15 AM 53.6 °F 50.9 °F 91% 29.99 in 10.0 mi Calm Calm - N/A   Clear
5:35 AM 54.0 °F 50.9 °F 89% 29.98 in 10.0 mi Calm Calm - N/A   Clear
5:55 AM 53.8 °F 51.1 °F 91% 29.98 in 10.0 mi Calm Calm - N/A   Clear
6:15 AM 54.5 °F 50.9 °F 88% 29.97 in 10.0 mi Calm Calm - N/A   Clear
6:35 AM 55.2 °F 51.1 °F 86% 29.96 in 10.0 mi Calm Calm - N/A   Clear
6:55 AM 53.8 °F 51.4 °F 92% 29.96 in 10.0 mi Calm Calm - N/A   Clear
6:56 AM 53.6 °F 51.8 °F 94% 29.96 in 10.0 mi Calm Calm - N/A   Clear
7:56 AM 53.6 °F 51.8 °F 94% 29.97 in 10.0 mi SSW 3.5 mph - N/A   Clear
8:56 AM 55.4 °F 51.8 °F 88% 29.98 in 10.0 mi Calm Calm - N/A   Clear
9:56 AM 57.2 °F 51.8 °F 82% 29.99 in 10.0 mi WSW 3.5 mph - N/A   Clear
10:56 AM 59.0 °F 53.6 °F 82% 29.97 in 10.0 mi SW 3.5 mph - N/A   Clear
11:56 AM 60.8 °F 53.6 °F 77% 29.96 in 10.0 mi WSW 3.5 mph - N/A   Clear
12:56 PM 64.4 °F 55.4 °F 73% 29.92 in 10.0 mi WSW 3.5 mph - N/A   Clear
1:56 PM 64.4 °F 55.4 °F 73% 29.91 in 10.0 mi SW 3.5 mph - N/A   Clear
2:56 PM 64.4 °F 55.4 °F 73% 29.89 in 10.0 mi SSW 5.8 mph - N/A   Clear
3:56 PM 64.4 °F 57.2 °F 77% 29.89 in 10.0 mi SSW 4.6 mph - N/A   Clear
4:56 PM 64.4 °F 57.2 °F 77% 29.89 in 10.0 mi SSW 3.5 mph - N/A   Clear
5:56 PM 62.6 °F 59.0 °F 88% 29.89 in 5.0 mi Calm Calm - N/A   Clear
6:56 PM 60.8 °F 59.0 °F 94% 29.88 in 5.0 mi Calm Calm - N/A   Clear
7:56 PM 60.8 °F 59.0 °F 94% 29.88 in 5.0 mi SSW 4.6 mph - N/A   Light Drizzle
8:56 PM 60.8 °F 59.0 °F 94% 29.87 in 4.0 mi SSW 4.6 mph - N/A Rain Rain
9:35 PM 60.8 °F 59.2 °F 94% 29.87 in 7.0 mi South 4.6 mph - 0.01 in Rain Light Rain
9:55 PM 61.2 °F 59.5 °F 94% 29.87 in 7.0 mi Calm Calm - 0.01 in Rain Light Rain
10:35 PM 60.8 °F 59.4 °F 95% 29.86 in 5.0 mi Calm Calm - N/A Rain Rain
11:15 PM 60.8 °F 59.4 °F 95% 29.85 in 7.0 mi SSW 3.5 mph - N/A   Clear
11:35 PM 60.1 °F 59.0 °F 96% 29.84 in 5.0 mi Calm Calm - N/A   Clear
11:55 PM 59.9 °F 59.0 °F 97% 29.84 in 4.0 mi Calm Calm - N/A Rain Light Rain